TimeEDT,TemperatureF,Dew PointF,Humidity,Sea Level PressureIn,VisibilityMPH,Wind Direction,Wind SpeedMPH,Gust SpeedMPH,PrecipitationIn,Events,Conditions,WindDirDegrees,DateUTC
12:53 AM,73.0,72.0,96,29.98,7.0,Calm,Calm,-,N/A,,Clear,0,2013-09-08 04:53:00
1:53 AM,71.1,71.1,100,29.98,8.0,Calm,Calm,-,N/A,,Clear,0,2013-09-08 05:53:00
2:53 AM,69.1,69.1,100,29.97,7.0,Calm,Calm,-,N/A,,Clear,0,2013-09-08 06:53:00
3:44 AM,69.8,69.8,100,29.96,1.8,Calm,Calm,-,N/A,,Clear,0,2013-09-08 07:44:00
3:53 AM,69.1,69.1,100,29.96,2.0,Calm,Calm,-,N/A,,Clear,0,2013-09-08 07:53:00
4:03 AM,68.0,68.0,100,29.96,4.0,Calm,Calm,-,N/A,,Clear,0,2013-09-08 08:03:00
4:19 AM,68.0,68.0,100,29.96,1.5,Calm,Calm,-,N/A,,Clear,0,2013-09-08 08:19:00
4:29 AM,68.0,68.0,100,29.96,0.8,Calm,Calm,-,N/A,,Clear,0,2013-09-08 08:29:00
4:39 AM,68.0,68.0,100,29.96,1.8,Calm,Calm,-,N/A,,Clear,0,2013-09-08 08:39:00
4:41 AM,68.0,68.0,100,29.96,3.0,Calm,Calm,-,N/A,,Clear,0,2013-09-08 08:41:00
4:53 AM,66.9,66.9,100,29.95,3.0,Calm,Calm,-,N/A,,Clear,0,2013-09-08 08:53:00
5:01 AM,66.2,66.2,100,29.96,2.5,Calm,Calm,-,N/A,,Clear,0,2013-09-08 09:01:00
5:09 AM,66.2,66.2,100,29.96,1.2,Calm,Calm,-,N/A,,Clear,0,2013-09-08 09:09:00
5:17 AM,68.0,68.0,100,29.96,0.8,Calm,Calm,-,N/A,,Clear,0,2013-09-08 09:17:00
5:22 AM,66.2,66.2,100,29.96,1.8,Calm,Calm,-,N/A,,Clear,0,2013-09-08 09:22:00
5:24 AM,68.0,68.0,100,29.96,3.0,Calm,Calm,-,N/A,,Partly Cloudy,0,2013-09-08 09:24:00
5:53 AM,69.1,69.1,100,29.96,7.0,Calm,Calm,-,N/A,,Clear,0,2013-09-08 09:53:00
6:53 AM,68.0,68.0,100,29.96,8.0,Calm,Calm,-,N/A,,Clear,0,2013-09-08 10:53:00
7:53 AM,69.1,69.1,100,29.97,8.0,North,4.6,-,N/A,,Clear,10,2013-09-08 11:53:00
8:53 AM,73.0,73.0,100,29.98,10.0,NNE,8.1,-,N/A,,Clear,30,2013-09-08 12:53:00
9:53 AM,79.0,73.9,84,29.99,10.0,NNE,8.1,-,N/A,,Clear,30,2013-09-08 13:53:00
10:53 AM,82.0,73.0,74,29.99,10.0,NE,6.9,-,N/A,,Clear,50,2013-09-08 14:53:00
11:53 AM,84.0,71.1,65,29.98,10.0,NNE,8.1,-,N/A,,Partly Cloudy,30,2013-09-08 15:53:00
12:53 PM,86.0,70.0,59,29.97,10.0,Variable,6.9,-,N/A,,Clear,0,2013-09-08 16:53:00
1:53 PM,88.0,69.1,53,29.96,10.0,Calm,Calm,-,N/A,,Partly Cloudy,0,2013-09-08 17:53:00
2:53 PM,88.0,66.9,49,29.93,10.0,Calm,Calm,-,N/A,,Clear,0,2013-09-08 18:53:00
3:53 PM,91.0,66.9,45,29.91,10.0,North,5.8,-,N/A,,Clear,350,2013-09-08 19:53:00
4:53 PM,90.0,66.0,45,29.90,10.0,Variable,5.8,-,N/A,,Clear,0,2013-09-08 20:53:00
5:53 PM,90.0,66.0,45,29.89,10.0,NNE,6.9,-,N/A,,Clear,20,2013-09-08 21:53:00
6:53 PM,87.1,66.9,51,29.90,10.0,NNE,3.5,-,N/A,,Clear,30,2013-09-08 22:53:00
7:53 PM,82.9,69.1,63,29.91,10.0,ENE,8.1,-,N/A,,Partly Cloudy,60,2013-09-08 23:53:00
8:53 PM,80.1,71.1,74,29.95,10.0,ENE,6.9,-,N/A,,Clear,60,2013-09-09 00:53:00
9:53 PM,77.0,72.0,84,29.98,10.0,ENE,4.6,-,N/A,,Scattered Clouds,70,2013-09-09 01:53:00
10:53 PM,77.0,71.1,82,30.00,10.0,East,9.2,-,N/A,,Partly Cloudy,80,2013-09-09 02:53:00
11:53 PM,75.9,72.0,87,29.99,10.0,East,4.6,-,N/A,,Clear,100,2013-09-09 03:53:00